When you browse on this site, cookies collect data to enhance your experience and personalize the content and advertising you see.
Visit our Privacy Policy to learn more. By continuing to use the site, you agree to this use of cookies and data.
  • en Suisse
  • Liste des pays
  • À 7 jours
  • Température de l'eau
  • Carte météo
  • Widgets météo
  • user-avatar
    Se connecter

    Météo par heure à Fateevo

    Ce jour, 21 Août, Mercredi

    Heure Température Précipitation Vent Pression Humidité
    00:00 +20°C° 0 mm 1 m/s 750 mmHg 77%
    01:00 +18°C° 0 mm 0 m/s 750 mmHg 79%
    02:00 +17°C° 0 mm 0 m/s 751 mmHg 81%
    03:00 +17°C° 0 mm 0 m/s 751 mmHg 83%
    04:00 +17°C° 0 mm 0 m/s 751 mmHg 83%
    05:00 +17°C° 0 mm 0 m/s 751 mmHg 83%
    06:00 +19°C° 0 mm 1 m/s 751 mmHg 83%
    07:00 +21°C° 0 mm 1 m/s 751 mmHg 79%
    08:00 +22°C° 0 mm 1 m/s 751 mmHg 75%
    09:00 +24°C° 0 mm 1 m/s 752 mmHg 71%
    10:00 +25°C° 0 mm 1 m/s 751 mmHg 68%
    11:00 +24°C° 0 mm 0 m/s 751 mmHg 64%
    12:00 +25°C° 0 mm 0 m/s 751 mmHg 61%
    13:00 +26°C° 0 mm 0 m/s 751 mmHg 60%
    14:00 +28°C° 0 mm 1 m/s 751 mmHg 58%
    15:00 +29°C° 0 mm 1 m/s 751 mmHg 56%
    16:00 +28°C° 0 mm 1 m/s 751 mmHg 60%
    17:00 +28°C° 0 mm 1 m/s 750 mmHg 63%
    18:00 +28°C° 0 mm 1 m/s 750 mmHg 66%
    19:00 +26°C° 0 mm 1 m/s 750 mmHg 70%
    20:00 +24°C° 0 mm 1 m/s 750 mmHg 73%
    21:00 +23°C° 0 mm 2 m/s 750 mmHg 77%
    22:00 +21°C° 0 mm 2 m/s 750 mmHg 78%
    23:00 +21°C° 0 mm 2 m/s 750 mmHg 80%

    Demain, 22 Août, Jeudi

    Heure Température Précipitation Vent Pression Humidité
    00:00 +20°C° 0 mm 2 m/s 750 mmHg 81%
    01:00 +20°C° 0 mm 2 m/s 750 mmHg 83%
    02:00 +20°C° 0 mm 2 m/s 750 mmHg 85%
    03:00 +19°C° 0 mm 2 m/s 750 mmHg 87%
    04:00 +19°C° 0 mm 2 m/s 749 mmHg 87%
    05:00 +19°C° 0 mm 2 m/s 749 mmHg 88%
    06:00 +19°C° 0 mm 2 m/s 749 mmHg 89%
    07:00 +20°C° 0 mm 2 m/s 749 mmHg 83%
    08:00 +23°C° 0 mm 2 m/s 749 mmHg 78%
    09:00 +25°C° 0 mm 2 m/s 749 mmHg 72%
    10:00 +26°C° 0.1 mm 2 m/s 749 mmHg 69%
    11:00 +27°C° 0.1 mm 2 m/s 749 mmHg 65%
    12:00 +28°C° 0.1 mm 2 m/s 748 mmHg 62%
    13:00 +28°C° 0.5 mm 2 m/s 748 mmHg 62%
    14:00 +28°C° 0.5 mm 2 m/s 749 mmHg 62%
    15:00 +28°C° 0.5 mm 3 m/s 749 mmHg 62%
    16:00 +27°C° 1.1 mm 3 m/s 749 mmHg 69%
    17:00 +25°C° 1.1 mm 4 m/s 749 mmHg 77%
    18:00 +23°C° 1.1 mm 5 m/s 749 mmHg 84%
    19:00 +21°C° 0.3 mm 5 m/s 749 mmHg 86%
    20:00 +19°C° 0.3 mm 5 m/s 750 mmHg 88%
    21:00 +17°C° 0.3 mm 5 m/s 750 mmHg 90%
    22:00 +16°C° 0 mm 5 m/s 750 mmHg 90%
    23:00 +17°C° 0 mm 4 m/s 751 mmHg 90%

    Après-demain, 23 Août, Vendredi

    Heure Température Précipitation Vent Pression Humidité
    00:00 +15°C° 0 mm 4 m/s 751 mmHg 90%
    01:00 +14°C° 0 mm 4 m/s 751 mmHg 90%
    02:00 +14°C° 0 mm 4 m/s 752 mmHg 91%
    03:00 +13°C° 0 mm 4 m/s 752 mmHg 92%
    04:00 +13°C° 0 mm 3 m/s 752 mmHg 92%
    05:00 +13°C° 0 mm 3 m/s 752 mmHg 93%
    06:00 +12°C° 0 mm 3 m/s 752 mmHg 94%
    07:00 +14°C° 0 mm 3 m/s 753 mmHg 89%
    08:00 +15°C° 0 mm 4 m/s 753 mmHg 84%
    09:00 +18°C° 0 mm 4 m/s 753 mmHg 79%
    10:00 +19°C° 0 mm 4 m/s 753 mmHg 74%
    11:00 +20°C° 0 mm 3 m/s 753 mmHg 68%
    12:00 +21°C° 0 mm 3 m/s 753 mmHg 63%
    13:00 +21°C° 0 mm 3 m/s 753 mmHg 61%
    14:00 +22°C° 0 mm 3 m/s 753 mmHg 60%
    15:00 +22°C° 0 mm 4 m/s 753 mmHg 59%
    16:00 +21°C° 0 mm 3 m/s 753 mmHg 62%
    17:00 +21°C° 0 mm 3 m/s 753 mmHg 66%
    18:00 +20°C° 0 mm 2 m/s 752 mmHg 70%
    19:00 +19°C° 0 mm 2 m/s 753 mmHg 71%
    20:00 +17°C° 0 mm 2 m/s 753 mmHg 73%
    21:00 +16°C° 0 mm 1 m/s 753 mmHg 75%
    22:00 +15°C° 0 mm 1 m/s 753 mmHg 76%
    23:00 +15°C° 0 mm 1 m/s 753 mmHg 76%

    24 Août, Samedi

    Heure Température Précipitation Vent Pression Humidité
    00:00 +15°C° 0 mm 1 m/s 753 mmHg 77%
    01:00 +14°C° 0 mm 1 m/s 753 mmHg 78%
    02:00 +14°C° 0 mm 1 m/s 753 mmHg 80%
    03:00 +14°C° 0 mm 2 m/s 753 mmHg 81%
    04:00 +13°C° 0 mm 1 m/s 753 mmHg 83%
    05:00 +13°C° 0 mm 1 m/s 753 mmHg 84%
    06:00 +13°C° 0 mm 1 m/s 753 mmHg 85%
    07:00 +15°C° 0 mm 1 m/s 753 mmHg 80%
    08:00 +18°C° 0 mm 1 m/s 753 mmHg 74%
    09:00 +19°C° 0 mm 1 m/s 753 mmHg 69%
    10:00 +21°C° 0 mm 1 m/s 753 mmHg 64%
    11:00 +22°C° 0 mm 1 m/s 753 mmHg 58%
    12:00 +23°C° 0 mm 1 m/s 753 mmHg 53%
    13:00 +24°C° 0 mm 1 m/s 753 mmHg 51%
    14:00 +24°C° 0 mm 1 m/s 753 mmHg 49%
    15:00 +24°C° 0 mm 1 m/s 752 mmHg 47%
    16:00 +23°C° 0 mm 1 m/s 752 mmHg 52%
    17:00 +23°C° 0 mm 1 m/s 752 mmHg 57%
    18:00 +22°C° 0 mm 1 m/s 751 mmHg 62%
    19:00 +21°C° 0 mm 1 m/s 751 mmHg 64%
    20:00 +19°C° 0 mm 1 m/s 751 mmHg 66%
    21:00 +18°C° 0 mm 1 m/s 751 mmHg 68%
    22:00 +16°C° 0 mm 1 m/s 751 mmHg 69%
    23:00 +16°C° 0 mm 1 m/s 751 mmHg 71%

    25 Août, Dimanche

    Heure Température Précipitation Vent Pression Humidité
    00:00 +15°C° 0 mm 1 m/s 751 mmHg 72%
    01:00 +15°C° 0 mm 1 m/s 751 mmHg 74%
    02:00 +15°C° 0 mm 1 m/s 751 mmHg 76%
    03:00 +14°C° 0 mm 2 m/s 751 mmHg 78%
    04:00 +14°C° 0 mm 2 m/s 750 mmHg 80%
    05:00 +14°C° 0 mm 2 m/s 750 mmHg 82%
    06:00 +13°C° 0 mm 2 m/s 750 mmHg 84%
    07:00 +15°C° 0 mm 2 m/s 750 mmHg 81%
    08:00 +17°C° 0 mm 2 m/s 750 mmHg 77%
    09:00 +19°C° 0 mm 3 m/s 750 mmHg 74%
    10:00 +20°C° 0 mm 3 m/s 750 mmHg 69%
    11:00 +21°C° 0 mm 3 m/s 750 mmHg 65%
    12:00 +22°C° 0 mm 3 m/s 750 mmHg 60%
    13:00 +23°C° 0 mm 4 m/s 750 mmHg 60%
    14:00 +23°C° 0 mm 4 m/s 749 mmHg 60%
    15:00 +23°C° 0 mm 4 m/s 749 mmHg 60%
    16:00 +22°C° 0.3 mm 4 m/s 749 mmHg 66%
    17:00 +22°C° 0.3 mm 4 m/s 749 mmHg 71%
    18:00 +21°C° 0.3 mm 3 m/s 749 mmHg 77%
    19:00 +19°C° 0 mm 3 m/s 750 mmHg 80%
    20:00 +18°C° 0 mm 3 m/s 750 mmHg 83%
    21:00 +16°C° 0 mm 3 m/s 750 mmHg 85%
    22:00 +16°C° 0 mm 3 m/s 751 mmHg 86%
    23:00 +14°C° 0 mm 3 m/s 751 mmHg 86%

    26 Août, Lundi

    Heure Température Précipitation Vent Pression Humidité
    00:00 +13°C° 0 mm 3 m/s 752 mmHg 86%
    01:00 +12°C° 0 mm 3 m/s 752 mmHg 88%
    02:00 +12°C° 0 mm 3 m/s 752 mmHg 90%
    03:00 +11°C° 0 mm 3 m/s 752 mmHg 92%
    04:00 +11°C° 0 mm 3 m/s 753 mmHg 93%
    05:00 +10°C° 0 mm 2 m/s 753 mmHg 93%
    06:00 +10°C° 0 mm 2 m/s 753 mmHg 94%
    07:00 +11°C° 0 mm 3 m/s 753 mmHg 89%
    08:00 +13°C° 0 mm 3 m/s 754 mmHg 83%
    09:00 +14°C° 0 mm 3 m/s 754 mmHg 78%
    10:00 +16°C° 0 mm 3 m/s 754 mmHg 71%
    11:00 +18°C° 0 mm 3 m/s 754 mmHg 64%
    12:00 +19°C° 0 mm 3 m/s 754 mmHg 57%
    13:00 +19°C° 0 mm 2 m/s 754 mmHg 55%
    14:00 +19°C° 0 mm 2 m/s 754 mmHg 53%
    15:00 +20°C° 0 mm 2 m/s 754 mmHg 51%
    16:00 +19°C° 0 mm 2 m/s 754 mmHg 55%
    17:00 +19°C° 0 mm 2 m/s 753 mmHg 59%
    18:00 +19°C° 0 mm 1 m/s 753 mmHg 63%
    19:00 +18°C° 0 mm 1 m/s 753 mmHg 67%
    20:00 +15°C° 0 mm 2 m/s 753 mmHg 71%
    21:00 +14°C° 0 mm 2 m/s 753 mmHg 75%
    22:00 +13°C° 0 mm 2 m/s 753 mmHg 77%
    23:00 +13°C° 0 mm 2 m/s 754 mmHg 79%
    Voir plus